Weather History for Middletown, OH

Change the Weather History Date:

Friday, May 9, 2014

  Actual Average (KDAY) Record (KDAY)
Temperature  
Mean Temperature 68 °F 59 °F  
Max Temperature 75 °F 70 °F 92 °F (1896)
Min Temperature 60 °F 49 °F 31 °F (1947)
Degree Days  
Heating Degree Days 0 7  
Month to date heating degree days 69  
Since 1 July heating degree days 5520  
Cooling Degree Days 2 1  
Month to date cooling degree days 9  
Year to date cooling degree days 19  
Growing Degree Days 18 (Base 50)    
Moisture  
Dew Point 56 °F    
Average Humidity 63    
Maximum Humidity 79    
Minimum Humidity 51    
Precipitation  
Precipitation 0.00 in 0.15 in 1.41 in (1933)
Month to date precipitation 1.34  
Year to date precipitation 13.72  
Snow  
Snow 0.00 in 0.00 in 0.50 in (1923)
Month to date snowfall 0.0  
Since 1 July snowfall 23.3  
Snow Depth -    
Sea Level Pressure  
Sea Level Pressure 29.93 in    
Wind  
Wind Speed 8 mph (SSW)    
Max Wind Speed 21 mph    
Max Gust Speed 31 mph    
Visibility 10 miles    
Events Rain    
T = Trace of Precipitation, MM = Missing Value Source: NWS Daily Summary

Daily Weather History Graph

Daily Weather History Graph

Search for Another Location

Airport:

Trip Planner

Search our weather history database for the weather conditions in past years. The results will help you decide how hot, cold, wet, or windy it might be!

Date:

Astronomy

May. 09, 2014 Rise Set
Actual Time 6:29 AM EDT 8:39 PM EDT
Civil Twilight 5:59 AM EDT 9:09 PM EDT
Nautical Twilight 5:23 AM EDT 9:45 PM EDT
Astronomical Twilight 4:43 AM EDT 10:25 PM EDT
Moon 3:37 PM EDT (5/9) 3:29 AM EDT (5/9)
Length of Visible Light 15h 09m
Length of Day
14h 09m
Waxing Gibbous, 73% of the Moon is Illuminated
May 9
Waxing Gibbous
May 14
Full
May 21
Last Quarter
May 28
New
Jun 5
First Quarter

Hourly Weather History & Observations

Time (EDT) Temp. Dew Point Humidity Pressure Visibility Wind Dir Wind Speed Gust Speed Precip Events Conditions
12:15 AM 61.9 °F 51.6 °F 69% 30.02 in 10.0 mi SW 4.6 mph - N/A   Clear
12:35 AM 60.1 °F 52.0 °F 75% 30.01 in 10.0 mi WSW 4.6 mph - N/A   Clear
12:55 AM 60.1 °F 52.5 °F 76% 30.01 in 10.0 mi WSW 3.5 mph - N/A   Clear
1:15 AM 60.1 °F 53.2 °F 78% 30.00 in 10.0 mi Calm Calm - N/A   Clear
1:35 AM 60.8 °F 53.2 °F 76% 30.00 in 10.0 mi Calm Calm - N/A   Clear
1:55 AM 61.0 °F 53.6 °F 77% 30.00 in 10.0 mi WSW 3.5 mph - N/A   Clear
2:15 AM 60.1 °F 53.6 °F 79% 29.99 in 10.0 mi SW 3.5 mph - N/A   Clear
2:35 AM 60.4 °F 53.8 °F 79% 29.99 in 10.0 mi SW 3.5 mph - N/A   Clear
2:55 AM 60.1 °F 53.6 °F 79% 29.98 in 10.0 mi Calm Calm - N/A   Clear
3:15 AM 60.8 °F 53.8 °F 78% 29.98 in 10.0 mi SW 3.5 mph - N/A   Clear
3:35 AM 60.8 °F 52.9 °F 75% 29.98 in 10.0 mi SW 3.5 mph - N/A   Clear
3:55 AM 61.3 °F 52.2 °F 72% 29.98 in 10.0 mi SSW 4.6 mph - N/A   Clear
4:15 AM 64.4 °F 53.2 °F 67% 29.98 in 10.0 mi SSW 4.6 mph - N/A   Clear
4:35 AM 65.3 °F 53.8 °F 66% 29.97 in 10.0 mi South 4.6 mph - N/A   Clear
4:55 AM 65.3 °F 54.1 °F 67% 29.97 in 10.0 mi SSW 4.6 mph - N/A   Clear
5:15 AM 67.3 °F 54.5 °F 63% 29.97 in 10.0 mi SSW 5.8 mph - N/A   Clear
5:35 AM 67.6 °F 52.9 °F 59% 29.96 in 10.0 mi SSW 6.9 mph - N/A   Clear
5:55 AM 67.6 °F 54.5 °F 63% 29.96 in 10.0 mi SSW 5.8 mph - N/A   Clear
6:15 AM 67.6 °F 54.0 °F 61% 29.95 in 10.0 mi SSW 5.8 mph - N/A   Clear
6:35 AM 67.6 °F 54.5 °F 63% 29.96 in 10.0 mi SSW 5.8 mph - N/A   Clear
6:55 AM 67.6 °F 55.0 °F 64% 29.96 in 10.0 mi SSW 3.5 mph - N/A   Clear
7:15 AM 67.6 °F 54.0 °F 61% 29.96 in 10.0 mi SW 3.5 mph - N/A   Clear
7:35 AM 67.6 °F 54.0 °F 61% 29.97 in 10.0 mi South 6.9 mph - N/A   Scattered Clouds
7:55 AM 67.6 °F 52.5 °F 58% 29.97 in 10.0 mi SSW 5.8 mph - N/A   Mostly Cloudy
8:15 AM 67.6 °F 53.1 °F 59% 29.96 in 10.0 mi South 4.6 mph - N/A   Mostly Cloudy
8:35 AM 70.2 °F 54.0 °F 56% 29.96 in 10.0 mi South 10.4 mph - N/A   Mostly Cloudy
8:55 AM 72.7 °F 56.3 °F 56% 29.96 in 10.0 mi SSW 5.8 mph - N/A   Mostly Cloudy
9:15 AM 72.7 °F 56.1 °F 56% 29.95 in 10.0 mi SSW 13.8 mph - N/A   Scattered Clouds
9:35 AM 72.7 °F 55.0 °F 54% 29.95 in 10.0 mi SSW 12.7 mph - N/A   Clear
9:55 AM 72.7 °F 54.5 °F 53% 29.95 in 10.0 mi SSW 13.8 mph 19.6 mph N/A   Clear
10:15 AM 72.7 °F 55.0 °F 54% 29.94 in 10.0 mi South 15.0 mph 19.6 mph N/A   Scattered Clouds
10:35 AM 72.7 °F 55.0 °F 54% 29.94 in 10.0 mi SSW 13.8 mph 18.4 mph N/A   Clear
10:55 AM 72.7 °F 55.8 °F 55% 29.93 in 10.0 mi SSW 11.5 mph 16.1 mph N/A   Scattered Clouds
11:15 AM 72.7 °F 56.3 °F 56% 29.93 in 10.0 mi SSW 9.2 mph - N/A   Scattered Clouds
11:35 AM 75.2 °F 56.3 °F 52% 29.92 in 10.0 mi SSW 15.0 mph 23.0 mph N/A   Clear
11:55 AM 75.2 °F 55.8 °F 51% 29.92 in 10.0 mi SW 19.6 mph 25.3 mph N/A   Clear
12:15 PM 72.7 °F 54.5 °F 53% 29.93 in 10.0 mi SW 19.6 mph 28.8 mph N/A   Scattered Clouds
12:35 PM 70.2 °F 58.8 °F 67% 29.94 in 7.0 mi SW 17.3 mph 26.5 mph N/A Rain Light Rain
12:55 PM 68.4 °F 56.5 °F 66% 29.93 in 10.0 mi SSW 19.6 mph 28.8 mph N/A   Light Drizzle
1:15 PM 68.9 °F 57.4 °F 67% 29.92 in 10.0 mi SSW 16.1 mph 21.9 mph N/A   Overcast
1:35 PM 70.2 °F 57.4 °F 64% 29.92 in 10.0 mi SSW 15.0 mph 19.6 mph N/A   Mostly Cloudy
1:55 PM 72.7 °F 58.3 °F 60% 29.91 in 10.0 mi South 16.1 mph 26.5 mph N/A   Overcast
2:15 PM 72.7 °F 58.8 °F 62% 29.90 in 10.0 mi SSW 17.3 mph 25.3 mph N/A   Overcast
2:35 PM 72.7 °F 59.5 °F 63% 29.90 in 10.0 mi SW 18.4 mph 26.5 mph N/A   Overcast
2:55 PM 72.7 °F 59.2 °F 62% 29.90 in 10.0 mi SW 20.7 mph 31.1 mph N/A   Overcast
3:15 PM 72.7 °F 59.5 °F 63% 29.88 in 10.0 mi SSW 17.3 mph 26.5 mph N/A   Overcast
3:35 PM 72.7 °F 59.2 °F 62% 29.89 in 10.0 mi SW 15.0 mph 18.4 mph N/A   Overcast
3:55 PM 72.7 °F 58.8 °F 62% 29.88 in 10.0 mi SW 12.7 mph 23.0 mph N/A   Overcast
4:15 PM 73.2 °F 58.1 °F 59% 29.87 in 10.0 mi SW 15.0 mph 21.9 mph N/A   Mostly Cloudy
4:35 PM 73.6 °F 58.5 °F 59% 29.87 in 10.0 mi SW 17.3 mph 24.2 mph N/A   Scattered Clouds
4:55 PM 73.9 °F 57.4 °F 56% 29.85 in 10.0 mi SW 12.7 mph - N/A   Scattered Clouds
5:15 PM 73.9 °F 57.2 °F 56% 29.87 in 10.0 mi SW 12.7 mph 20.7 mph N/A   Scattered Clouds
5:35 PM 72.7 °F 56.8 °F 57% 29.87 in 10.0 mi SSW 11.5 mph 16.1 mph N/A   Scattered Clouds
5:55 PM 73.8 °F 57.7 °F 57% 29.87 in 10.0 mi SW 10.4 mph 17.3 mph N/A   Scattered Clouds
6:15 PM 72.7 °F 56.8 °F 57% 29.87 in 10.0 mi SW 13.8 mph 18.4 mph N/A   Scattered Clouds
6:35 PM 72.7 °F 56.7 °F 57% 29.87 in 10.0 mi SW 12.7 mph - N/A   Scattered Clouds
6:55 PM 72.7 °F 56.7 °F 57% 29.88 in 10.0 mi SW 12.7 mph 16.1 mph N/A   Scattered Clouds
7:15 PM 72.7 °F 57.2 °F 58% 29.88 in 10.0 mi SW 10.4 mph - N/A   Scattered Clouds
7:35 PM 72.7 °F 57.2 °F 58% 29.87 in 10.0 mi SSW 12.7 mph 17.3 mph N/A   Scattered Clouds
7:55 PM 72.7 °F 57.6 °F 59% 29.87 in 10.0 mi SSW 11.5 mph 18.4 mph N/A   Clear
8:15 PM 72.7 °F 57.9 °F 60% 29.87 in 10.0 mi SSW 10.4 mph - N/A   Clear
8:35 PM 72.7 °F 58.3 °F 60% 29.86 in 10.0 mi SSW 10.4 mph - N/A   Clear
8:55 PM 72.7 °F 58.5 °F 61% 29.87 in 10.0 mi SSW 10.4 mph - N/A   Clear
9:15 PM 72.7 °F 59.9 °F 64% 29.88 in 10.0 mi SSW 9.2 mph - N/A   Clear
9:35 PM 72.7 °F 59.7 °F 64% 29.88 in 10.0 mi SSW 9.2 mph - N/A   Clear
9:55 PM 72.7 °F 60.1 °F 64% 29.89 in 10.0 mi SSW 6.9 mph - N/A   Clear
10:15 PM 72.7 °F 60.4 °F 65% 29.90 in 10.0 mi SW 8.1 mph - N/A   Clear
10:35 PM 71.6 °F 59.7 °F 66% 29.91 in 10.0 mi SW 12.7 mph - N/A   Clear
10:55 PM 69.6 °F 54.9 °F 59% 29.92 in 10.0 mi SW 12.7 mph 17.3 mph N/A   Clear
11:15 PM 67.6 °F 52.5 °F 58% 29.93 in 10.0 mi SW 11.5 mph - N/A   Clear
11:35 PM 67.6 °F 53.4 °F 60% 29.93 in 10.0 mi WSW 12.7 mph 16.1 mph N/A   Clear
11:55 PM 67.6 °F 53.8 °F 61% 29.93 in 10.0 mi WSW 12.7 mph - N/A   Clear